FW7475 Weather Reports


Display with metric or nautical units.
time (UTC)temp
F
wind
direction
speed
MPH
gust
MPH
rain 1hr
in
rain 24hr
in
rain mn
in
humidity
%
barometer
mb
20210921152517 60 159 2.0 9.0 0.00 0.00 0.00 74
20210921151517 60 59 2.0 7.0 0.00 0.00 0.00 74
20210921150516 60 123 2.0 9.0 0.00 0.00 0.00 76
20210921145516 58 98 1.0 11.0 0.00 0.00 0.00 79
20210921144518 58 184 1.0 4.0 0.00 0.00 0.00 80
20210921143518 57 232 1.0 2.0 0.00 0.00 0.00 80
20210921142517 57 280 1.0 3.0 0.00 0.00 0.00 81
20210921141517 58 84 0.0 3.0 0.00 0.00 0.00 80
20210921140517 58 273 0.0 2.0 0.00 0.00 0.00 79
20210921135518 58 249 0.0 1.0 0.00 0.00 0.00 79
20210921134515 58 226 2.0 5.0 0.00 0.00 0.00 80
20210921133516 57 207 1.0 8.0 0.00 0.00 0.00 82
20210921132517 57 89 2.0 7.0 0.00 0.00 0.00 83
20210921131518 58 54 2.0 6.0 0.00 0.00 0.00 82
20210921130516 59 85 1.0 3.0 0.00 0.00 0.00 79
20210921125516 59 81 1.0 4.0 0.00 0.00 0.00 79
20210921124519 59 88 2.0 7.0 0.00 0.00 0.00 79
20210921123519 59 89 2.0 9.0 0.00 0.00 0.00 80
20210921122516 58 81 3.0 12.0 0.00 0.00 0.00 83
20210921121517 55 78 2.0 7.0 0.00 0.00 0.00 90
20210921120517 54 50 2.0 8.0 0.00 0.00 0.00 92
20210921115518 54 61 1.0 2.0 0.00 0.00 0.00 92
20210921114516 54 68 1.0 2.0 0.00 0.00 0.00 91
20210921113517 55 45 1.0 2.0 0.00 0.00 0.00 89
20210921112517 56 49 1.0 3.0 0.00 0.00 0.00 87
20210921111518 57 45 1.0 3.0 0.00 0.00 0.00 86
20210921110516 57 23 1.0 4.0 0.00 0.00 0.00 87
20210921105518 58 35 2.0 4.0 0.00 0.00 0.00 86
20210921104519 57 71 2.0 5.0 0.00 0.00 0.00 87
20210921103518 57 65 2.0 7.0 0.00 0.00 0.00 89
20210921102516 56 64 2.0 6.0 0.00 0.00 0.00 89
20210921101518 56 80 2.0 7.0 0.00 0.00 0.00 91
20210921100517 55 62 2.0 4.0 0.00 0.00 0.00 93
20210921095519 54 70 1.0 4.0 0.00 0.00 0.00 94
20210921094516 54 32 1.0 2.0 0.00 0.00 0.00 94
20210921093518 54 40 1.0 3.0 0.00 0.00 0.00 94
20210921092518 53 49 1.0 4.0 0.00 0.00 0.00 95
20210921091518 53 65 1.0 2.0 0.00 0.00 0.00 95
20210921090517 53 44 1.0 2.0 0.00 0.00 0.00 95
20210921085516 53 59 0.0 1.0 0.00 0.00 0.00 95
20210921084519 54 46 0.0 1.0 0.00 0.00 0.00 95
20210921083517 54 87 1.0 3.0 0.00 0.00 0.00 95
20210921082516 53 76 1.0 2.0 0.00 0.00 0.00 96
20210921081516 53 80 1.0 3.0 0.00 0.00 0.00 95
20210921080517 54 63 2.0 3.0 0.00 0.00 0.00 95
20210921075519 54 78 1.0 1.0 0.00 0.00 0.00 95
20210921074516 54 91 1.0 2.0 0.00 0.00 0.00 96
20210921073516 53 70 1.0 2.0 0.00 0.00 0.00 96
20210921072517 53 89 1.0 2.0 0.00 0.00 0.00 95
20210921071518 54 75 1.0 3.0 0.00 0.00 0.00 94
20210921070518 55 54 1.0 2.0 0.00 0.00 0.00 93
20210921065516 55 48 1.0 2.0 0.00 0.00 0.00 93
20210921064519 55 47 1.0 2.0 0.00 0.00 0.00 93
20210921063518 55 48 1.0 3.0 0.00 0.00 0.00 92
20210921062518 56 52 1.0 2.0 0.00 0.00 0.00 91
20210921061517 56 52 0.0 1.0 0.00 0.00 0.00 91
20210921060518 56 71 1.0 2.0 0.00 0.00 0.00 91
20210921055518 56 52 1.0 2.0 0.00 0.00 0.00 93
20210921054518 55 58 1.0 2.0 0.00 0.00 0.00 94
20210921053519 55 58 1.0 2.0 0.00 0.00 0.00 94
20210921052517 56 0.0 0.0 0.00 0.00 0.00 93
20210921051518 56 94 0.0 1.0 0.00 0.00 0.00 94
20210921050516 57 100 1.0 2.0 0.00 0.00 0.00 94
20210921045517 57 100 1.0 1.0 0.00 0.00 0.00 94
20210921044517 56 73 1.0 2.0 0.00 0.00 0.00 95
20210921043518 56 73 1.0 2.0 0.00 0.00 0.00 95
20210921042516 56 74 2.0 2.0 0.00 0.00 0.00 94
20210921041518 56 83 1.0 2.0 0.00 0.00 0.00 93
20210921040518 57 77 1.0 3.0 0.00 0.00 0.00 94
20210921035518 57 77 1.0 3.0 0.00 0.00 0.00 93
20210921034516 56 71 2.0 3.0 0.00 0.00 0.00 94
20210921033517 57 87 1.0 3.0 0.00 0.00 0.00 93
20210921032517 57 71 1.0 3.0 0.00 0.00 0.00 93
20210921031518 56 76 1.0 3.0 0.00 0.00 0.00 94
20210921030516 56 72 1.0 2.0 0.00 0.00 0.00 94
20210921025516 56 74 1.0 2.0 0.00 0.00 0.00 93
20210921024517 57 64 1.0 2.0 0.00 0.00 0.00 93
20210921023518 57 62 1.0 2.0 0.00 0.00 0.00 92
20210921022516 57 57 1.0 2.0 0.00 0.00 0.00 91
20210921021517 58 69 1.0 2.0 0.00 0.00 0.00 90
20210921020517 59 53 1.0 6.0 0.00 0.00 0.00 88
20210921015515 59 3 1.0 3.0 0.00 0.00 0.00 88
20210921014516 59 46 1.0 4.0 0.00 0.00 0.00 88
20210921013518 60 33 2.0 10.0 0.00 0.00 0.00 88
20210921012518 60 58 2.0 10.0 0.00 0.00 0.00 87
20210921011515 61 44 2.0 9.0 0.00 0.00 0.00 86
20210921010517 61 49 1.0 5.0 0.00 0.00 0.00 85
20210921005517 61 43 2.0 8.0 0.00 0.00 0.00 85
20210921004517 62 36 2.0 8.0 0.00 0.00 0.00 85
20210921003517 62 27 1.0 3.0 0.00 0.00 0.00 85
20210921002518 61 50 2.0 6.0 0.00 0.00 0.00 86
20210921001520 62 26 2.0 5.0 0.00 0.00 0.00 86
20210921000518 61 33 2.0 5.0 0.00 0.00 0.00 86
20210920235515 62 28 2.0 5.0 0.00 0.00 0.00 85
20210920234520 62 34 2.0 6.0 0.00 0.00 0.00 85
20210920233517 62 18 2.0 8.0 0.00 0.00 0.00 86
20210920232518 63 20 2.0 6.0 0.00 0.00 0.00 85
20210920231516 62 359 2.0 6.0 0.00 0.00 0.00 85
20210920230516 62 14 2.0 5.0 0.00 0.00 0.00 85
20210920225516 63 31 2.0 8.0 0.00 0.00 0.00 85
20210920224518 63 20 1.0 6.0 0.00 0.00 0.00 85
20210920223518 62 10 1.0 6.0 0.00 0.00 0.00 86
20210920222517 63 19 1.0 3.0 0.00 0.00 0.00 86
20210920221521 63 285 1.0 3.0 0.00 0.00 0.00 86
20210920220518 63 286 1.0 3.0 0.00 0.00 0.00 86
20210920215515 63 279 1.0 2.0 0.00 0.00 0.00 86
20210920214516 63 27 1.0 2.0 0.00 0.00 0.00 86
20210920213517 63 359 1.0 2.0 0.00 0.00 0.00 86
20210920212518 63 38 1.0 2.0 0.00 0.00 0.00 86
20210920211516 63 357 1.0 3.0 0.00 0.00 0.00 86
20210920210516 63 25 1.0 2.0 0.00 0.00 0.00 87
20210920205517 63 277 1.0 3.0 0.00 0.00 0.00 87
20210920204517 63 42 1.0 2.0 0.00 0.00 0.00 87
20210920203515 62 74 0.0 3.0 0.00 0.00 0.00 87
20210920202516 62 19 1.0 3.0 0.00 0.00 0.00 87
20210920201521 62 29 1.0 2.0 0.00 0.00 0.00 88
20210920200517 62 348 1.0 5.0 0.00 0.00 0.00 86
20210920195515 62 7 1.0 3.0 0.00 0.00 0.00 86
20210920194516 61 21 1.0 2.0 0.00 0.00 0.00 88
20210920193517 61 357 1.0 2.0 0.00 0.00 0.00 87
20210920192517 61 19 0.0 2.0 0.00 0.00 0.00 87
20210920191516 62 30 1.0 2.0 0.00 0.00 0.00 85
20210920190520 62 3 0.0 2.0 0.00 0.00 0.00 85
20210920185520 62 35 0.0 2.0 0.00 0.00 0.00 85
20210920184520 64 342 1.0 3.0 0.00 0.00 0.00 82
20210920183515 64 91 1.0 3.0 0.00 0.00 0.00 83
20210920182516 64 61 1.0 5.0 0.00 0.00 0.00 86
20210920181517 63 272 1.0 3.0 0.00 0.00 0.00 87
20210920180520 62 63 3.0 9.0 0.00 0.00 0.00 88
20210920175516 62 73 1.0 4.0 0.00 0.00 0.00 91
20210920174516 61 64 4.0 9.0 0.00 0.00 0.00 92
20210920173517 60 69 2.0 8.0 0.00 0.00 0.00 93
20210920172518 60 68 3.0 10.0 0.00 0.00 0.00 95
20210920171518 59 68 3.0 9.0 0.00 0.00 0.00 97
20210920170517 58 72 3.0 9.0 0.00 0.00 0.00 98
20210920165517 57 77 1.0 7.0 0.00 0.00 0.00 99
20210920164518 57 79 3.0 9.0 0.00 0.00 0.00 100
20210920163516 56 75 3.0 11.0 0.00 0.00 0.00 100
20210920162516 55 90 3.0 11.0 0.00 0.00 0.00 100
20210920161517 55 93 1.0 5.0 0.00 0.00 0.00 100
20210920160518 55 85 2.0 7.0 0.00 0.00 0.00 100
20210920155516 55 80 1.0 5.0 0.00 0.00 0.00 100
20210920154519 54 77 1.0 3.0 0.00 0.00 0.00 100
20210920153517 54 74 1.0 3.0 0.00 0.00 0.00 100